Wind_Speed
39 38 41 34 33 37 39 39 35 35 33 34 36 34 35 38 38 35 34 35 35 34 34 32 32 31 31 31 30 30 32 34 36 37 38 40 43 44 44 44 45 46 47 48
46 42 35 42 40 41 41 41 36 37 36 39 40 37 34 41 41 38 38 38 37 37 36 34 33 32 33 33 33 35 37 38 39 40 41 44 46 47 48 48 48 50 51 53
46 46 42 46 44 45 44 43 39 39 43 43 44 40 40 42 43 43 41 40 39 38 37 35 35 36 36 38 40 41 42 41 43 45 47 48 49 51 52 54 54 54 56 57
49 51 43 46 49 47 48 44 42 44 47 47 48 45 46 41 41 43 44 43 41 39 38 38 39 40 41 43 46 48 49 50 51 51 52 53 54 54 54 55 56 58 59 61
48 47 44 45 47 49 48 50 45 49 49 50 48 49 46 48 40 40 42 42 42 42 42 42 44 46 47 48 50 52 55 58 59 59 58 56 58 59 59 58 61 61 61 62
45 46 46 44 44 47 50 50 49 50 50 52 48 51 46 51 43 40 43 42 42 42 44 45 47 49 51 53 56 58 58 57 59 60 61 62 61 61 62 62 62 61 61 66
37 42 40 42 45 44 48 52 48 51 53 52 51 53 46 52 51 43 45 46 48 48 49 49 49 51 54 55 56 57 59 62 63 65 66 67 67 66 66 64 65 66 66 65
33 37 38 38 41 44 48 49 48 52 51 49 55 54 54 51 49 50 47 46 48 50 50 51 52 53 57 59 62 64 66 66 67 67 69 69 67 67 66 67 68 69 70 70
34 33 36 36 37 43 46 48 45 49 53 55 56 57 55 54 52 48 48 50 51 53 54 53 53 55 57 60 62 64 65 65 66 68 68 68 66 67 67 67 70 72 75 75
32 39 38 37 38 39 43 42 45 50 55 56 56 56 57 56 53 53 53 53 53 54 54 57 59 61 61 59 61 63 64 64 63 63 66 68 69 70 70 69 70 72 73 75
37 38 43 43 43 43 47 52 52 52 53 55 56 55 62 60 60 61 60 58 58 57 60 63 64 64 64 63 64 63 63 64 65 65 67 67 69 71 74 77 78 78 77 78
39 43 44 46 48 48 49 52 57 57 57 57 61 63 67 68 68 68 65 62 61 63 65 65 64 64 63 61 61 62 64 67 68 69 69 73 77 76 74 75 78 82 85 89
40 42 42 44 46 48 48 50 53 56 60 60 61 64 67 69 69 66 63 61 61 62 60 57 58 59 61 63 65 67 69 72 74 76 77 78 78 79 82 86 89 93 97 101
39 39 40 43 47 46 48 50 49 52 56 56 58 58 59 61 61 60 59 59 57 56 57 60 61 64 65 67 71 73 75 77 78 79 78 80 83 86 88 92 96 100 104 99
38 39 35 35 40 39 38 43 49 53 49 52 46 50 52 53 51 53 54 56 57 56 58 61 61 65 67 70 72 75 77 78 78 79 82 84 86 89 94 98 97 78 56 44
41 45 41 41 41 40 40 42 43 47 50 51 48 47 51 48 50 54 56 57 58 60 61 63 66 68 70 72 75 76 77 78 81 83 85 88 92 94 82 58 43 34 35 38
47 48 40 44 42 44 45 44 46 45 46 43 45 43 51 47 48 52 54 58 61 65 65 66 67 69 73 75 75 76 79 81 83 87 90 91 78 53 38 31 29 32 29 29
51 45 42 45 47 51 47 47 48 47 45 46 48 51 49 50 51 51 54 60 62 63 65 68 70 71 73 74 76 80 82 85 89 90 77 53 37 33 32 28 27 29 30 27
50 53 55 54 53 55 53 48 45 48 47 47 48 49 50 53 53 53 57 62 64 65 67 68 71 73 75 80 82 84 88 89 74 52 35 31 28 28 27 27 27 24 20 15
59 60 60 64 62 59 57 48 45 49 48 45 46 49 52 54 57 60 63 59 61 64 67 70 74 78 80 82 84 82 69 53 37 33 28 26 26 26 28 24 16 13 15 15
61 62 57 64 68 65 55 49 49 50 49 47 48 52 55 57 58 58 58 60 63 68 73 76 78 80 81 76 57 40 35 31 29 29 28 22 28 28 20 13 12 13 12 9
56 63 59 54 47 42 42 44 47 48 49 53 53 53 55 57 57 58 61 64 69 72 76 79 82 78 66 43 35 31 33 29 28 24 25 25 33 24 17 18 16 12 9 8
63 61 56 49 46 44 43 47 48 48 49 52 54 55 55 55 58 61 64 69 74 77 80 82 77 61 43 35 34 34 31 31 27 23 27 30 26 20 22 20 17 13 11 12
63 58 59 53 48 45 44 45 46 49 52 52 52 53 55 57 61 64 69 73 76 77 74 63 53 41 38 37 35 37 31 30 25 29 31 34 27 27 26 24 21 17 15 16
57 53 48 46 40 44 46 49 50 49 49 51 51 53 58 62 65 68 71 69 59 46 36 33 35 36 36 37 37 37 38 37 30 29 38 35 33 32 27 25 24 21 18 18
48 46 43 41 42 48 47 45 48 49 49 51 55 59 61 63 63 56 42 32 29 30 31 31 27 24 35 41 39 39 41 38 33 35 41 40 38 37 33 29 26 24 25 23
Wind_Direction
264 260 254 254 239 236 233 234 237 241 247 247 248 244 252 258 256 254 256 256 257 259 260 257 256 256 258 260 265 270 272 273 273 275 276 276 277 275 273 271 269 268 267 266
262 260 266 251 241 240 239 237 237 244 244 248 249 248 246 255 256 258 258 258 257 257 255 255 254 255 256 257 264 271 276 276 275 276 275 275 274 274 273 273 271 270 270 271
260 264 259 248 242 237 240 240 236 240 247 248 252 252 246 247 256 258 259 259 258 256 256 256 256 255 256 257 264 270 272 276 277 279 278 273 273 272 272 271 270 267 267 268
256 259 261 253 243 238 241 242 241 241 245 248 249 254 253 248 251 255 257 257 258 256 256 260 263 264 263 264 269 274 277 279 278 276 275 273 271 268 267 267 266 267 267 268
258 258 261 254 246 240 240 241 240 241 244 249 251 256 258 257 252 250 252 254 254 257 259 260 262 264 265 269 272 274 276 277 278 277 276 275 275 275 273 268 265 264 264 264
250 251 249 245 245 246 240 243 243 246 249 250 253 255 256 265 257 249 248 253 253 257 261 263 265 267 268 270 273 275 276 277 277 277 277 277 277 275 274 277 277 274 270 266
252 255 249 243 241 243 243 241 248 250 249 255 258 260 262 261 264 257 255 257 259 263 266 268 269 268 267 268 269 270 272 273 274 276 276 277 277 278 278 278 278 277 276 272
247 238 244 249 250 253 245 244 245 250 252 259 259 260 263 263 262 264 261 261 263 265 265 267 267 267 267 268 269 269 270 271 271 271 272 272 273 273 274 275 275 275 276 275
253 242 237 242 239 240 244 243 244 248 250 255 259 265 263 264 263 263 266 267 266 268 270 270 270 271 272 272 272 273 273 273 272 271 271 272 272 272 273 273 273 274 275 275
247 246 242 234 235 240 246 244 240 242 247 252 260 264 265 268 268 269 269 270 272 273 276 277 278 277 276 279 279 277 276 275 272 271 271 270 270 270 270 272 274 273 271 271
242 245 244 246 247 247 248 250 249 248 247 253 259 261 268 270 269 272 274 276 278 281 282 282 283 283 283 283 282 281 281 280 277 276 276 277 278 278 277 275 276 276 277 276
248 245 245 247 248 250 249 247 248 250 252 254 256 260 263 266 270 273 273 275 277 276 276 278 279 279 280 279 278 277 276 276 276 276 277 278 279 280 282 284 284 285 285 285
238 242 245 249 252 252 255 257 255 254 254 259 259 263 263 265 267 270 273 274 275 277 278 279 280 280 279 279 278 277 278 278 279 280 281 282 284 285 288 289 291 291 290 292
244 252 254 256 254 256 255 254 255 256 256 260 269 264 265 265 267 269 270 270 271 273 276 276 277 277 277 278 278 279 280 281 282 283 285 287 289 291 292 293 292 289 288 290
264 265 256 256 256 255 253 256 255 257 262 261 267 264 262 265 265 266 264 266 270 272 271 273 275 276 277 278 281 282 282 283 286 287 289 291 293 292 291 290 292 295 290 288
266 269 260 259 257 254 258 256 253 250 248 252 258 259 262 260 262 265 268 269 270 271 273 275 278 278 281 283 283 284 285 286 290 292 292 291 290 292 298 291 288 282 285 285
260 257 257 252 246 243 247 258 257 251 246 254 255 263 261 265 268 268 270 270 271 272 275 278 281 282 282 282 284 286 289 290 289 288 289 291 300 294 281 278 273 278 279 294
250 247 243 236 237 237 249 249 249 252 253 258 261 263 268 271 272 271 270 269 272 276 279 280 282 282 283 285 286 286 286 287 287 291 301 299 279 270 275 272 268 273 266 281
252 268 247 237 242 247 248 248 261 262 260 263 265 264 266 269 269 270 272 274 276 280 282 281 281 283 284 285 286 287 287 289 298 300 280 271 269 270 264 276 268 254 261 264
253 254 239 240 244 248 252 253 262 266 261 261 267 265 268 271 273 276 276 281 281 280 280 280 282 283 284 286 288 291 295 298 286 271 262 262 265 269 267 250 217 239 256 261
251 247 242 251 248 252 253 251 261 265 261 262 265 266 267 269 273 277 279 279 279 281 282 283 283 284 286 289 293 289 278 268 262 261 261 262 261 256 221 216 228 249 255 252
251 249 248 248 249 252 251 257 263 261 260 261 264 265 265 269 272 275 278 280 279 279 280 281 281 286 290 284 274 272 274 278 258 263 256 260 249 204 206 224 226 242 260 283
255 250 247 247 254 259 257 259 259 259 261 264 265 266 267 268 271 274 276 276 276 278 281 284 288 289 280 267 264 270 268 274 261 260 248 240 219 211 223 222 224 239 270 279
258 255 246 251 250 255 256 256 256 259 262 264 265 267 270 271 273 273 274 276 278 281 284 286 284 279 269 261 259 258 263 262 266 254 242 227 214 223 228 226 230 246 258 268
251 246 243 248 253 253 253 256 258 263 265 267 270 271 271 273 275 276 280 282 283 285 288 288 285 273 266 263 267 263 265 271 273 260 231 220 222 228 236 241 243 251 264 272
241 241 245 253 249 250 255 261 261 264 267 269 270 271 274 277 280 282 282 283 286 290 293 294 294 294 272 262 266 266 269 270 275 288 229 221 226 230 235 240 248 257 257 275
Height
5753 5752 5753 5762 5761 5761 5763 5765 5769 5770 5772 5775 5775 5779 5779 5779 5779 5781 5783 5783 5783 5784 5786 5787 5787 5788 5788 5789 5790 5791 5791 5790 5790 5789 5789 5789 5788 5786 5785 5785 5783 5782 5780 5780
5741 5741 5750 5748 5752 5753 5755 5757 5762 5763 5765 5765 5765 5771 5776 5769 5770 5773 5774 5775 5775 5775 5777 5778 5779 5780 5781 5782 5782 5783 5783 5782 5782 5781 5780 5780 5779 5777 5776 5775 5774 5772 5771 5770
5730 5733 5735 5736 5741 5744 5746 5748 5752 5755 5753 5755 5756 5760 5764 5763 5763 5764 5765 5765 5766 5767 5768 5769 5771 5772 5774 5775 5775 5775 5774 5773 5771 5771 5770 5770 5770 5769 5768 5765 5764 5762 5760 5758
5716 5718 5725 5726 5730 5734 5736 5740 5742 5744 5743 5746 5746 5748 5749 5754 5756 5757 5757 5757 5757 5758 5759 5760 5762 5762 5763 5763 5763 5763 5762 5762 5762 5761 5760 5758 5756 5756 5755 5755 5753 5752 5750 5748
5708 5711 5713 5714 5720 5722 5727 5727 5731 5730 5733 5734 5738 5736 5740 5740 5746 5748 5748 5749 5749 5749 5750 5750 5750 5750 5751 5750 5751 5750 5750 5749 5749 5748 5746 5745 5744 5742 5740 5739 5738 5737 5736 5735
5696 5694 5699 5706 5708 5711 5714 5718 5720 5721 5723 5721 5728 5727 5731 5728 5733 5737 5738 5739 5740 5741 5741 5741 5740 5741 5741 5740 5739 5738 5737 5735 5734 5732 5730 5729 5728 5727 5726 5725 5724 5724 5723 5722
5686 5686 5689 5692 5697 5700 5702 5705 5711 5712 5710 5710 5714 5714 5723 5717 5718 5726 5728 5730 5731 5731 5731 5731 5731 5730 5729 5728 5726 5725 5723 5721 5720 5718 5717 5715 5712 5711 5710 5708 5707 5706 5706 5704
5671 5673 5677 5683 5688 5692 5692 5697 5700 5698 5702 5705 5699 5701 5704 5706 5710 5711 5714 5717 5718 5718 5717 5717 5717 5717 5716 5714 5713 5711 5709 5707 5706 5704 5701 5699 5697 5695 5693 5691 5689 5688 5686 5685
5659 5663 5666 5672 5677 5678 5680 5684 5693 5690 5691 5690 5692 5690 5694 5694 5697 5701 5702 5702 5704 5705 5705 5705 5703 5701 5700 5698 5696 5695 5694 5692 5690 5688 5686 5683 5681 5679 5678 5675 5672 5670 5668 5667
5650 5652 5658 5663 5665 5669 5671 5677 5676 5677 5678 5677 5680 5680 5680 5680 5686 5687 5688 5690 5690 5690 5689 5689 5688 5685 5682 5681 5680 5678 5676 5674 5673 5672 5670 5668 5664 5661 5659 5656 5655 5652 5649 5646
5640 5644 5648 5651 5655 5659 5662 5660 5664 5668 5670 5669 5671 5673 5667 5668 5669 5671 5672 5674 5674 5673 5672 5669 5667 5666 5665 5663 5661 5661 5660 5660 5656 5651 5650 5648 5645 5641 5638 5634 5629 5626 5625 5623
5629 5632 5635 5638 5640 5645 5647 5648 5649 5652 5658 5661 5661 5662 5656 5657 5658 5657 5660 5661 5661 5658 5656 5655 5654 5652 5650 5648 5647 5646 5643 5641 5639 5637 5631 5628 5624 5618 5614 5612 5609 5605 5601 5597
5617 5620 5623 5624 5627 5629 5633 5639 5641 5642 5643 5645 5647 5648 5644 5645 5645 5647 5648 5647 5645 5644 5643 5642 5640 5638 5636 5634 5632 5629 5625 5623 5618 5615 5609 5605 5601 5596 5593 5588 5582 5576 5570 5564
5605 5608 5612 5614 5615 5616 5619 5624 5627 5627 5627 5632 5633 5634 5634 5634 5634 5633 5633 5632 5630 5630 5629 5627 5624 5622 5620 5617 5613 5610 5607 5602 5597 5592 5589 5584 5579 5574 5569 5562 5554 5547 5539 5530
5592 5596 5597 5600 5601 5604 5606 5609 5611 5612 5619 5615 5623 5618 5617 5620 5620 5619 5618 5617 5618 5617 5614 5611 5607 5606 5603 5599 5595 5591 5587 5583 5580 5575 5570 5564 5559 5552 5544 5536 5528 5519 5513 5509
5580 5582 5585 5587 5587 5589 5593 5595 5597 5599 5601 5603 5607 5607 5605 5607 5606 5603 5603 5603 5603 5601 5600 5597 5594 5590 5587 5583 5577 5573 5569 5565 5560 5555 5550 5544 5537 5528 5521 5514 5509 5506 5505 5501
5567 5570 5573 5574 5576 5577 5578 5582 5585 5588 5590 5596 5596 5597 5590 5592 5592 5591 5590 5589 5587 5585 5582 5579 5577 5574 5569 5563 5559 5555 5551 5547 5540 5534 5528 5522 5515 5509 5505 5503 5501 5499 5498 5493
5556 5558 5561 5562 5566 5563 5571 5572 5576 5576 5581 5583 5584 5580 5579 5579 5578 5577 5576 5573 5571 5569 5566 5563 5559 5555 5549 5544 5540 5535 5531 5527 5521 5514 5508 5503 5499 5498 5496 5493 5492 5491 5489 5488
5544 5546 5549 5549 5551 5554 5559 5562 5566 5565 5570 5570 5570 5567 5565 5564 5563 5561 5560 5557 5554 5552 5549 5545 5540 5536 5531 5525 5519 5514 5510 5504 5499 5495 5493 5492 5490 5488 5486 5485 5485 5484 5483 5483
5532 5533 5536 5535 5537 5540 5549 5551 5551 5550 5552 5557 5555 5554 5552 5551 5549 5545 5544 5542 5537 5533 5530 5526 5521 5518 5514 5507 5499 5492 5487 5486 5484 5483 5484 5482 5481 5480 5478 5478 5477 5478 5479 5478
5517 5518 5519 5520 5522 5525 5534 5535 5536 5535 5541 5541 5541 5540 5540 5538 5534 5528 5527 5522 5518 5514 5510 5507 5504 5498 5490 5483 5478 5476 5473 5474 5474 5474 5474 5473 5473 5473 5473 5473 5473 5475 5474 5474
5504 5505 5507 5510 5509 5512 5521 5520 5521 5521 5523 5525 5524 5525 5525 5524 5521 5514 5510 5507 5502 5498 5492 5488 5483 5475 5471 5468 5467 5465 5465 5465 5465 5465 5466 5466 5465 5465 5467 5469 5469 5470 5469 5468
5489 5492 5495 5498 5498 5500 5505 5504 5505 5506 5509 5509 5508 5508 5509 5508 5507 5504 5499 5492 5485 5479 5473 5467 5462 5458 5455 5457 5457 5456 5456 5456 5456 5457 5458 5459 5458 5460 5462 5462 5463 5464 5465 5464
5477 5479 5480 5482 5485 5487 5489 5490 5492 5492 5493 5494 5493 5491 5492 5492 5489 5487 5482 5477 5470 5462 5454 5448 5445 5445 5444 5445 5447 5447 5447 5447 5446 5448 5450 5450 5452 5455 5456 5457 5458 5459 5460 5460
5462 5464 5467 5467 5472 5473 5474 5475 5476 5479 5479 5478 5477 5476 5475 5474 5470 5466 5461 5456 5449 5443 5439 5437 5434 5434 5434 5434 5436 5437 5437 5437 5438 5438 5439 5441 5445 5448 5450 5452 5454 5454 5454 5455
5447 5450 5452 5455 5456 5455 5460 5461 5461 5462 5463 5462 5461 5460 5458 5455 5451 5446 5442 5438 5435 5433 5430 5428 5426 5423 5423 5423 5424 5425 5425 5427 5428 5429 5430 5433 5437 5440 5443 5444 5447 5448 5449 5449